COOK73 CYBX-EIKY

Flight info

Callsign COOK73
Flight time N/A
Altitude 39000
Route PELTU/M076F390 DCT 53N050W 54N040W 55N030W 54N020W DCT DOGAL/N0438F390 DCT LONDU DCT BUNON
Aircraft C25C/M-SDE2E3FGHRWXY/LB1

Departure

Time 2026-04-20 16:50
Airport Lourdes-de-Blanc-Sablon Airport (CYBX)

Arrival

Time N/A
Airport Kerry Airport (EIKY)
Time Latitude Longitude Altitude Speed Heading
2026-04-20 16:36 51.44451 -57.18708 123 ft 0 kts 23°
2026-04-20 16:43 51.44439 -57.18717 120 ft 2 kts 35°
2026-04-20 16:44 51.44434 -57.18732 121 ft 2 kts 99°
2026-04-20 16:44 51.44439 -57.18746 121 ft 0 kts 117°
2026-04-20 16:45 51.44436 -57.18740 121 ft 3 kts 117°
2026-04-20 16:46 51.44424 -57.18701 120 ft 4 kts 117°
2026-04-20 16:46 51.44405 -57.18641 119 ft 8 kts 117°
2026-04-20 16:46 51.44381 -57.18561 123 ft 7 kts 94°
2026-04-20 16:46 51.44386 -57.18507 120 ft 4 kts 80°
2026-04-20 16:47 51.44417 -57.18451 125 ft 11 kts 36°
2026-04-20 16:47 51.44489 -57.18383 124 ft 12 kts 27°
2026-04-20 16:47 51.44569 -57.18316 121 ft 13 kts 27°
2026-04-20 16:47 51.44649 -57.18248 122 ft 13 kts 31°
2026-04-20 16:48 51.44700 -57.18183 121 ft 7 kts 37°
2026-04-20 16:48 51.44730 -57.18188 121 ft 4 kts 264°
2026-04-20 16:48 51.44713 -57.18204 120 ft 3 kts 186°
2026-04-20 16:48 51.44691 -57.18215 121 ft 0 kts 207°
2026-04-20 16:49 51.44657 -57.18243 121 ft 27 kts 207°
2026-04-20 16:49 51.44231 -57.18596 124 ft 109 kts 207°
2026-04-20 16:50 51.43524 -57.19107 799 ft 108 kts 204°
2026-04-20 16:50 51.42686 -57.19682 1099 ft 154 kts 210°
2026-04-20 16:50 51.41557 -57.20134 1861 ft 181 kts 184°
2026-04-20 16:50 51.39979 -57.19311 3495 ft 195 kts 152°
2026-04-20 16:51 51.39132 -57.17474 4521 ft 222 kts 120°
2026-04-20 16:51 51.38984 -57.15749 5140 ft 244 kts 94°
2026-04-20 16:51 51.39584 -57.13102 6054 ft 261 kts 64°
2026-04-20 16:51 51.40543 -57.10642 6948 ft 266 kts 58°
2026-04-20 16:52 51.41554 -57.08154 7894 ft 267 kts 60°
2026-04-20 16:52 51.42510 -57.05590 8831 ft 269 kts 62°
2026-04-20 16:52 51.43457 -57.02980 9767 ft 272 kts 62°
2026-04-20 16:52 51.44426 -57.00350 10592 ft 275 kts 61°
2026-04-20 16:53 51.45410 -56.97696 11399 ft 279 kts 61°
2026-04-20 16:53 51.46405 -56.95012 12216 ft 282 kts 62°
2026-04-20 16:53 51.47410 -56.92289 13037 ft 286 kts 62°
2026-04-20 16:53 51.48427 -56.89526 13821 ft 290 kts 62°
2026-04-20 16:54 51.49455 -56.86735 14581 ft 290 kts 61°
2026-04-20 16:54 51.50486 -56.83940 15344 ft 292 kts 61°
2026-04-20 16:54 51.51517 -56.81128 16085 ft 293 kts 61°
2026-04-20 16:54 51.52556 -56.78300 16839 ft 295 kts 61°
2026-04-20 16:55 51.53600 -56.75454 17593 ft 297 kts 60°
2026-04-20 16:55 51.54637 -56.72618 18287 ft 299 kts 60°
2026-04-20 16:55 51.55697 -56.69724 18903 ft 302 kts 60°
2026-04-20 16:55 51.56769 -56.66792 19526 ft 306 kts 60°
2026-04-20 16:56 51.57851 -56.63822 20149 ft 310 kts 60°
2026-04-20 16:56 51.58949 -56.60816 20786 ft 314 kts 60°
2026-04-20 16:56 51.60057 -56.57769 21420 ft 318 kts 60°
2026-04-20 16:56 51.61180 -56.54682 22063 ft 322 kts 60°
2026-04-20 16:57 51.62319 -56.51552 22688 ft 326 kts 59°
2026-04-20 16:57 51.63468 -56.48381 23304 ft 330 kts 59°
2026-04-20 16:57 51.64632 -56.45171 23838 ft 334 kts 59°
2026-04-20 16:57 51.65807 -56.41926 24386 ft 337 kts 59°
2026-04-20 16:58 51.66992 -56.38642 24933 ft 340 kts 59°
2026-04-20 16:58 51.68191 -56.35326 25491 ft 344 kts 59°
2026-04-20 16:58 51.69397 -56.31977 26047 ft 347 kts 58°
2026-04-20 16:58 51.70616 -56.28591 26588 ft 350 kts 58°
2026-04-20 16:59 51.71845 -56.25176 27113 ft 354 kts 58°
2026-04-20 16:59 51.73070 -56.21759 27646 ft 357 kts 58°
2026-04-20 16:59 51.74318 -56.18282 28185 ft 360 kts 58°
2026-04-20 16:59 51.75568 -56.14789 28825 ft 359 kts 58°
2026-04-20 17:00 51.78062 -56.07811 30035 ft 358 kts 57°
2026-04-20 17:00 51.79301 -56.04333 30608 ft 356 kts 57°
2026-04-20 17:00 51.80530 -56.00881 31176 ft 354 kts 57°
2026-04-20 17:01 51.81754 -55.97441 31744 ft 352 kts 57°
2026-04-20 17:01 51.82965 -55.94027 32307 ft 349 kts 57°
2026-04-20 17:01 51.84170 -55.90632 32866 ft 347 kts 58°
2026-04-20 17:01 51.85367 -55.87253 33400 ft 345 kts 58°
2026-04-20 17:02 51.86556 -55.83889 33866 ft 344 kts 58°
2026-04-20 17:02 51.87741 -55.80533 34272 ft 343 kts 58°
2026-04-20 17:02 51.88926 -55.77180 34661 ft 343 kts 58°
2026-04-20 17:02 51.90107 -55.73826 35040 ft 343 kts 58°
2026-04-20 17:03 51.91284 -55.70475 35440 ft 342 kts 58°
2026-04-20 17:03 51.92462 -55.67128 35808 ft 341 kts 58°
2026-04-20 17:03 51.93633 -55.63786 36173 ft 341 kts 58°
2026-04-20 17:03 51.94804 -55.60446 36530 ft 341 kts 58°
2026-04-20 17:04 51.95972 -55.57111 36898 ft 340 kts 58°
2026-04-20 17:04 51.97136 -55.53774 37252 ft 339 kts 58°
2026-04-20 17:04 51.98298 -55.50451 37610 ft 339 kts 58°
2026-04-20 17:04 51.99456 -55.47127 37964 ft 338 kts 58°
2026-04-20 17:05 52.00611 -55.43807 38341 ft 337 kts 59°
2026-04-20 17:05 52.01761 -55.40502 38620 ft 337 kts 59°
2026-04-20 17:05 52.02926 -55.37146 38709 ft 345 kts 59°
2026-04-20 17:06 52.05325 -55.30227 38761 ft 363 kts 59°
2026-04-20 17:06 52.07863 -55.22880 38763 ft 382 kts 59°
2026-04-20 17:07 52.10319 -55.15038 38765 ft 396 kts 70°
2026-04-20 17:07 52.12046 -55.06401 38769 ft 406 kts 72°
2026-04-20 17:08 52.13805 -54.97550 38771 ft 415 kts 72°
2026-04-20 17:08 52.15587 -54.88524 38770 ft 422 kts 72°
2026-04-20 17:09 52.17378 -54.79411 38778 ft 428 kts 72°
2026-04-20 17:09 52.19197 -54.70114 38782 ft 433 kts 72°
2026-04-20 17:10 52.21027 -54.60713 38781 ft 437 kts 72°
2026-04-20 17:10 52.22867 -54.51222 38781 ft 440 kts 73°
2026-04-20 17:11 52.24708 -54.41663 38790 ft 443 kts 73°
2026-04-20 17:11 52.26555 -54.32029 38793 ft 445 kts 73°
2026-04-20 17:12 52.28392 -54.22411 38799 ft 447 kts 73°
2026-04-20 17:12 52.30235 -54.12702 38801 ft 448 kts 73°
2026-04-20 17:13 52.32075 -54.02959 38802 ft 449 kts 73°
2026-04-20 17:13 52.33911 -53.93180 38805 ft 450 kts 73°
2026-04-20 17:14 52.35744 -53.83376 38806 ft 451 kts 73°
2026-04-20 17:14 52.37570 -53.73556 38812 ft 451 kts 73°
2026-04-20 17:15 52.39390 -53.63709 38815 ft 452 kts 73°
2026-04-20 17:15 52.41202 -53.53859 38821 ft 452 kts 73°
2026-04-20 17:16 52.42995 -53.44062 38825 ft 452 kts 73°
2026-04-20 17:16 52.44795 -53.34176 38836 ft 452 kts 73°
2026-04-20 17:17 52.46585 -53.24284 38836 ft 453 kts 73°
2026-04-20 17:17 52.48367 -53.14382 38844 ft 453 kts 73°
2026-04-20 17:18 52.50140 -53.04479 38851 ft 453 kts 73°
2026-04-20 17:18 52.51910 -52.94544 38850 ft 453 kts 73°
2026-04-20 17:19 52.53668 -52.84618 38855 ft 453 kts 73°
2026-04-20 17:19 52.55414 -52.74697 38859 ft 452 kts 73°
2026-04-20 17:20 52.57152 -52.64773 38863 ft 452 kts 73°
2026-04-20 17:20 52.58880 -52.54851 38869 ft 451 kts 73°
2026-04-20 17:21 52.60590 -52.44986 38873 ft 451 kts 73°
2026-04-20 17:21 52.62298 -52.35063 38878 ft 451 kts 73°
2026-04-20 17:22 52.63999 -52.25126 38880 ft 451 kts 73°
2026-04-20 17:22 52.65695 -52.15166 38884 ft 451 kts 73°
2026-04-20 17:23 52.67380 -52.05219 38887 ft 451 kts 73°
2026-04-20 17:23 52.69058 -51.95252 38893 ft 451 kts 73°
2026-04-20 17:24 52.70724 -51.85299 38898 ft 449 kts 76°
2026-04-20 17:24 52.72375 -51.75375 38905 ft 447 kts 75°
2026-04-20 17:25 52.73995 -51.65586 38909 ft 443 kts 76°
2026-04-20 17:25 52.75612 -51.55758 38907 ft 439 kts 76°
2026-04-20 17:26 52.77197 -51.46066 38907 ft 435 kts 76°
2026-04-20 17:26 52.78753 -51.36502 38905 ft 433 kts 76°
2026-04-20 17:27 52.80303 -51.26916 38909 ft 430 kts 76°
2026-04-20 17:27 52.81839 -51.17365 38910 ft 429 kts 76°
2026-04-20 17:28 52.83358 -51.07862 38915 ft 427 kts 76°
2026-04-20 17:28 52.84866 -50.98377 38919 ft 426 kts 76°
2026-04-20 17:29 52.86362 -50.88912 38922 ft 425 kts 76°
2026-04-20 17:29 52.87848 -50.79462 38928 ft 424 kts 76°
2026-04-20 17:30 52.89322 -50.70028 38929 ft 423 kts 76°
2026-04-20 17:30 52.90778 -50.60654 38935 ft 422 kts 76°
2026-04-20 17:31 52.92244 -50.51165 38941 ft 422 kts 76°
2026-04-20 17:31 52.93682 -50.41802 38940 ft 422 kts 77°
2026-04-20 17:32 52.95122 -50.32377 38953 ft 422 kts 76°
2026-04-20 17:32 52.96555 -50.22938 38952 ft 421 kts 77°
2026-04-20 17:33 52.97980 -50.13491 38957 ft 421 kts 77°
2026-04-20 17:33 52.99397 -50.04051 38961 ft 421 kts 77°
2026-04-20 17:34 53.00793 -49.94603 38966 ft 421 kts 78°
2026-04-20 17:34 53.02132 -49.85193 38970 ft 421 kts 77°
2026-04-20 17:35 53.03496 -49.75721 38974 ft 421 kts 78°
2026-04-20 17:35 53.04840 -49.66244 38973 ft 421 kts 78°
2026-04-20 17:36 53.06183 -49.56761 38982 ft 421 kts 78°
2026-04-20 17:36 53.07515 -49.47266 38984 ft 421 kts 78°
2026-04-20 17:37 53.08842 -49.37766 38994 ft 421 kts 78°
2026-04-20 17:37 53.10160 -49.28266 39001 ft 421 kts 78°
2026-04-20 17:38 53.11249 -49.20362 38998 ft 421 kts 78°
2026-04-20 17:38 53.12765 -49.09302 39008 ft 421 kts 78°
2026-04-20 17:39 53.14060 -48.99780 39011 ft 421 kts 78°
2026-04-20 17:39 53.15139 -48.91806 39015 ft 421 kts 78°
2026-04-20 17:40 53.16421 -48.82276 39016 ft 421 kts 79°
2026-04-20 17:40 53.17686 -48.72807 39013 ft 421 kts 79°
2026-04-20 17:41 53.18951 -48.63277 39017 ft 421 kts 79°
2026-04-20 17:41 53.20207 -48.53745 39016 ft 421 kts 79°
2026-04-20 17:42 53.21458 -48.44196 39018 ft 420 kts 79°
2026-04-20 17:42 53.22700 -48.34647 39027 ft 420 kts 79°
2026-04-20 17:43 53.23932 -48.25113 39028 ft 420 kts 79°
2026-04-20 17:43 53.25155 -48.15581 39030 ft 420 kts 79°
2026-04-20 17:44 53.26360 -48.06120 39036 ft 419 kts 79°
2026-04-20 17:44 53.27567 -47.96594 39041 ft 419 kts 79°
2026-04-20 17:45 53.28766 -47.87061 39045 ft 418 kts 79°
2026-04-20 17:45 53.29955 -47.77532 39047 ft 418 kts 80°
2026-04-20 17:46 53.31135 -47.68020 39049 ft 418 kts 80°
2026-04-20 17:46 53.32310 -47.58481 39054 ft 418 kts 80°
2026-04-20 17:47 53.33477 -47.48943 39056 ft 418 kts 80°
2026-04-20 17:47 53.34625 -47.39475 39061 ft 418 kts 81°
2026-04-20 17:48 53.35775 -47.29944 39064 ft 417 kts 81°
2026-04-20 17:48 53.36916 -47.20411 39065 ft 417 kts 81°
2026-04-20 17:49 53.38048 -47.10887 39066 ft 416 kts 81°
2026-04-20 17:49 53.39171 -47.01369 39076 ft 416 kts 81°
2026-04-20 17:50 53.40277 -46.91917 39075 ft 416 kts 81°
2026-04-20 17:50 53.41383 -46.82410 39076 ft 416 kts 81°
2026-04-20 17:51 53.42483 -46.72883 39080 ft 415 kts 81°
2026-04-20 17:51 53.43572 -46.63373 39086 ft 415 kts 81°
2026-04-20 17:52 53.44653 -46.53863 39089 ft 415 kts 81°
2026-04-20 17:52 53.45726 -46.44356 39092 ft 415 kts 81°
2026-04-20 17:53 53.46792 -46.34840 39093 ft 415 kts 81°
2026-04-20 17:53 53.47850 -46.25323 39098 ft 415 kts 81°
2026-04-20 17:54 53.48900 -46.15806 39100 ft 414 kts 81°
2026-04-20 17:54 53.49944 -46.06272 39107 ft 414 kts 81°
2026-04-20 17:55 53.50977 -45.96753 39108 ft 414 kts 82°
2026-04-20 17:55 53.51995 -45.87306 39109 ft 414 kts 81°
2026-04-20 17:56 53.53012 -45.77794 39111 ft 413 kts 81°
2026-04-20 17:56 53.54022 -45.68286 39113 ft 413 kts 81°
2026-04-20 17:57 53.55021 -45.58782 39118 ft 413 kts 82°
2026-04-20 17:57 53.56013 -45.49277 39118 ft 412 kts 81°
2026-04-20 17:58 53.56997 -45.39775 39123 ft 412 kts 81°
2026-04-20 17:58 53.57973 -45.30277 39123 ft 412 kts 81°
2026-04-20 17:59 53.58940 -45.20781 39126 ft 411 kts 81°
2026-04-20 17:59 53.59898 -45.11300 39129 ft 411 kts 81°
2026-04-20 18:00 53.60848 -45.01820 39131 ft 410 kts 81°
2026-04-20 18:00 53.61790 -44.92337 39129 ft 410 kts 81°
2026-04-20 18:01 53.62717 -44.82933 39128 ft 410 kts 81°
2026-04-20 18:01 53.63641 -44.73467 39129 ft 409 kts 81°
2026-04-20 18:02 53.64558 -44.64003 39132 ft 409 kts 81°
2026-04-20 18:02 53.65467 -44.54552 39135 ft 408 kts 81°
2026-04-20 18:03 53.66366 -44.45099 39138 ft 408 kts 80°
2026-04-20 18:03 53.67257 -44.35657 39143 ft 407 kts 80°
2026-04-20 18:04 53.68141 -44.26222 39143 ft 407 kts 80°
2026-04-20 18:04 53.69016 -44.16778 39143 ft 407 kts 80°
2026-04-20 18:05 53.70310 -44.02679 39148 ft 406 kts 80°
2026-04-20 18:05 53.71164 -43.93247 39151 ft 406 kts 80°
2026-04-20 18:06 53.72012 -43.83808 39149 ft 406 kts 80°
2026-04-20 18:06 53.72851 -43.74399 39150 ft 405 kts 80°
2026-04-20 18:07 53.73677 -43.65038 39151 ft 405 kts 80°
2026-04-20 18:07 53.74499 -43.55627 39155 ft 405 kts 80°
2026-04-20 18:08 53.75314 -43.46211 39156 ft 405 kts 80°
2026-04-20 18:08 53.76122 -43.36791 39157 ft 404 kts 80°
2026-04-20 18:09 53.76923 -43.27372 39158 ft 404 kts 80°
2026-04-20 18:09 53.77713 -43.17967 39162 ft 404 kts 80°
2026-04-20 18:10 53.78498 -43.08554 39162 ft 404 kts 79°
2026-04-20 18:10 53.79276 -42.99139 39163 ft 404 kts 79°
2026-04-20 18:11 53.80045 -42.89721 39164 ft 404 kts 79°
2026-04-20 18:11 53.80806 -42.80294 39161 ft 404 kts 79°
2026-04-20 18:12 53.81557 -42.70931 39164 ft 404 kts 79°
2026-04-20 18:12 53.82305 -42.61495 39159 ft 404 kts 79°
2026-04-20 18:13 53.83045 -42.52063 39155 ft 404 kts 79°
2026-04-20 18:13 53.83777 -42.42621 39162 ft 404 kts 79°
2026-04-20 18:14 53.84503 -42.33178 39157 ft 405 kts 79°
2026-04-20 18:14 53.85223 -42.23722 39158 ft 405 kts 79°
2026-04-20 18:15 53.85933 -42.14267 39153 ft 405 kts 79°
2026-04-20 18:15 53.86637 -42.04800 39154 ft 405 kts 79°
2026-04-20 18:16 53.87331 -41.95373 39153 ft 405 kts 79°
2026-04-20 18:16 53.88022 -41.85892 39149 ft 406 kts 79°
2026-04-20 18:17 53.88704 -41.76404 39152 ft 406 kts 79°
2026-04-20 18:17 53.89380 -41.66896 39150 ft 406 kts 79°
2026-04-20 18:18 53.90049 -41.57397 39145 ft 406 kts 79°
2026-04-20 18:18 53.90710 -41.47892 39148 ft 406 kts 79°
2026-04-20 18:19 53.91364 -41.38364 39146 ft 406 kts 79°
2026-04-20 18:19 53.92010 -41.28845 39145 ft 406 kts 79°
2026-04-20 18:20 53.92651 -41.19300 39142 ft 407 kts 78°
2026-04-20 18:20 53.93283 -41.09762 39141 ft 407 kts 79°
2026-04-20 18:21 53.93907 -41.00213 39138 ft 407 kts 78°
2026-04-20 18:21 53.94523 -40.90702 39136 ft 408 kts 78°
2026-04-20 18:22 53.95134 -40.81132 39142 ft 408 kts 78°
2026-04-20 18:22 53.95738 -40.71549 39130 ft 409 kts 78°
2026-04-20 18:23 53.96335 -40.61940 39131 ft 409 kts 78°
2026-04-20 18:23 53.96925 -40.52337 39134 ft 409 kts 78°
2026-04-20 18:24 53.97509 -40.42707 39133 ft 410 kts 78°
2026-04-20 18:24 53.98084 -40.33080 39132 ft 410 kts 78°
2026-04-20 18:25 53.98653 -40.23427 39128 ft 410 kts 78°
2026-04-20 18:25 53.99214 -40.13778 39129 ft 411 kts 78°
2026-04-20 18:26 53.99765 -40.04164 39124 ft 411 kts 78°
2026-04-20 18:26 54.00769 -39.94695 39123 ft 404 kts 69°
2026-04-20 18:27 54.02102 -39.85403 39126 ft 405 kts 69°
2026-04-20 18:27 54.03432 -39.76092 39120 ft 406 kts 69°
2026-04-20 18:28 54.04544 -39.68266 39120 ft 406 kts 69°
2026-04-20 18:28 54.05867 -39.58895 39122 ft 407 kts 69°
2026-04-20 18:29 54.07175 -39.49575 39119 ft 408 kts 69°
2026-04-20 18:29 54.08487 -39.40164 39118 ft 409 kts 69°
2026-04-20 18:30 54.09800 -39.30701 39113 ft 410 kts 69°
2026-04-20 18:30 54.11104 -39.21227 39113 ft 411 kts 69°
2026-04-20 18:31 54.12408 -39.11703 39115 ft 413 kts 69°
2026-04-20 18:31 54.13706 -39.02159 39107 ft 414 kts 69°
2026-04-20 18:32 54.15001 -38.92575 39108 ft 416 kts 69°
2026-04-20 18:32 54.16295 -38.82935 39113 ft 417 kts 69°
2026-04-20 18:33 54.17584 -38.73272 39110 ft 418 kts 69°
2026-04-20 18:33 54.18871 -38.63556 39112 ft 420 kts 69°
2026-04-20 18:34 54.20150 -38.53827 39109 ft 420 kts 69°
2026-04-20 18:34 54.21417 -38.44142 39113 ft 421 kts 69°
2026-04-20 18:35 54.22687 -38.34357 39107 ft 421 kts 69°
2026-04-20 18:35 54.23948 -38.24577 39106 ft 422 kts 69°
2026-04-20 18:36 54.25200 -38.14789 39109 ft 422 kts 69°
2026-04-20 18:36 54.26448 -38.04980 39110 ft 421 kts 69°
2026-04-20 18:37 54.27686 -37.95175 39110 ft 421 kts 69°
2026-04-20 18:37 54.28912 -37.85395 39108 ft 420 kts 69°
2026-04-20 18:38 54.30130 -37.75612 39110 ft 419 kts 69°
2026-04-20 18:38 54.31327 -37.65928 39112 ft 418 kts 69°
2026-04-20 18:39 54.32523 -37.56183 39109 ft 417 kts 70°
2026-04-20 18:39 54.33706 -37.46473 39112 ft 416 kts 70°
2026-04-20 18:40 54.34880 -37.36772 39108 ft 415 kts 70°
2026-04-20 18:40 54.36045 -37.27078 39109 ft 414 kts 70°
2026-04-20 18:41 54.37198 -37.17410 39113 ft 414 kts 70°
2026-04-20 18:41 54.38342 -37.07743 39111 ft 413 kts 70°
2026-04-20 18:42 54.39470 -36.98145 39111 ft 413 kts 70°
2026-04-20 18:42 54.40597 -36.88489 39112 ft 413 kts 70°
2026-04-20 18:43 54.41717 -36.78815 39112 ft 413 kts 71°
2026-04-20 18:43 54.42827 -36.69154 39113 ft 413 kts 71°
2026-04-20 18:44 54.43932 -36.59472 39111 ft 413 kts 71°
2026-04-20 18:44 54.45028 -36.49799 39109 ft 413 kts 71°
2026-04-20 18:45 54.46115 -36.40116 39109 ft 413 kts 72°
2026-04-20 18:45 54.47190 -36.30473 39109 ft 413 kts 72°
2026-04-20 18:46 54.48264 -36.20770 39114 ft 413 kts 72°
2026-04-20 18:46 54.49333 -36.11040 39110 ft 414 kts 72°
2026-04-20 18:47 54.50392 -36.01312 39112 ft 414 kts 73°
2026-04-20 18:47 54.51445 -35.91558 39110 ft 414 kts 73°
2026-04-20 18:48 54.52491 -35.81813 39105 ft 414 kts 73°
2026-04-20 18:48 54.53530 -35.72042 39108 ft 414 kts 73°
2026-04-20 18:49 54.54559 -35.62284 39109 ft 414 kts 74°
2026-04-20 18:49 54.55580 -35.52522 39107 ft 414 kts 74°
2026-04-20 18:50 54.56595 -35.42753 39107 ft 414 kts 74°
2026-04-20 18:50 54.57600 -35.32988 39106 ft 414 kts 75°
2026-04-20 18:51 54.58598 -35.23208 39106 ft 414 kts 75°
2026-04-20 18:51 54.59586 -35.13443 39103 ft 413 kts 75°
2026-04-20 18:52 54.60560 -35.03740 39104 ft 413 kts 75°
2026-04-20 18:52 54.61533 -34.93961 39102 ft 413 kts 75°
2026-04-20 18:53 54.62496 -34.84199 39102 ft 413 kts 75°
2026-04-20 18:53 54.63450 -34.74439 39099 ft 412 kts 76°
2026-04-20 18:54 54.64399 -34.64664 39096 ft 412 kts 76°
2026-04-20 18:54 54.65336 -34.54908 39096 ft 412 kts 76°
2026-04-20 18:55 54.66266 -34.45137 39095 ft 412 kts 76°
2026-04-20 18:55 54.67189 -34.35368 39089 ft 411 kts 76°
2026-04-20 18:56 54.68103 -34.25610 39092 ft 411 kts 77°
2026-04-20 18:56 54.69008 -34.15837 39091 ft 411 kts 77°
2026-04-20 18:57 54.69904 -34.06083 39087 ft 411 kts 77°
2026-04-20 18:57 54.70786 -33.96393 39087 ft 410 kts 77°
2026-04-20 18:58 54.71666 -33.86647 39084 ft 410 kts 77°
2026-04-20 18:58 54.72536 -33.76904 39089 ft 410 kts 78°
2026-04-20 18:59 54.73398 -33.67166 39085 ft 409 kts 78°
2026-04-20 18:59 54.74251 -33.57437 39083 ft 409 kts 78°
2026-04-20 19:00 54.75095 -33.47721 39078 ft 408 kts 78°
2026-04-20 19:00 54.75930 -33.38000 39078 ft 408 kts 78°
2026-04-20 19:01 54.76757 -33.28291 39071 ft 407 kts 78°
2026-04-20 19:01 54.77576 -33.18596 39062 ft 407 kts 79°
2026-04-20 19:02 54.78385 -33.08899 39067 ft 406 kts 79°
2026-04-20 19:02 54.79185 -32.99213 39069 ft 405 kts 79°
2026-04-20 19:03 54.79978 -32.89541 39062 ft 405 kts 79°
2026-04-20 19:03 54.80755 -32.79945 39058 ft 404 kts 79°
2026-04-20 19:04 54.81529 -32.70298 39058 ft 404 kts 79°
2026-04-20 19:04 54.82294 -32.60660 39056 ft 403 kts 80°
2026-04-20 19:05 54.83049 -32.51044 39055 ft 402 kts 80°
2026-04-20 19:05 54.83795 -32.41444 39052 ft 401 kts 80°
2026-04-20 19:06 54.84533 -32.31854 39050 ft 400 kts 80°
2026-04-20 19:06 54.85262 -32.22281 39047 ft 400 kts 80°
2026-04-20 19:07 54.85982 -32.12717 39047 ft 399 kts 80°
2026-04-20 19:07 54.86694 -32.03154 39048 ft 399 kts 81°
2026-04-20 19:08 54.87747 -31.88822 39049 ft 398 kts 81°
2026-04-20 19:09 54.88439 -31.79276 39047 ft 398 kts 81°
2026-04-20 19:09 54.89118 -31.69800 39046 ft 398 kts 81°
2026-04-20 19:10 54.89793 -31.60272 39049 ft 397 kts 82°
2026-04-20 19:10 54.90461 -31.50740 39050 ft 397 kts 82°
2026-04-20 19:11 54.91119 -31.41237 39047 ft 396 kts 82°
2026-04-20 19:11 54.91768 -31.31745 39053 ft 395 kts 82°
2026-04-20 19:12 54.92409 -31.22276 39053 ft 394 kts 83°
2026-04-20 19:12 54.93041 -31.12814 39052 ft 393 kts 83°
2026-04-20 19:13 54.93664 -31.03369 39052 ft 392 kts 83°
2026-04-20 19:13 54.94279 -30.93951 39051 ft 392 kts 83°
2026-04-20 19:14 54.94886 -30.84540 39056 ft 391 kts 83°
2026-04-20 19:14 54.95384 -30.76729 39059 ft 391 kts 83°
2026-04-20 19:15 54.95976 -30.67331 39055 ft 390 kts 83°
2026-04-20 19:15 54.96559 -30.57951 39056 ft 390 kts 83°
2026-04-20 19:16 54.97135 -30.48573 39058 ft 389 kts 83°
2026-04-20 19:16 54.97704 -30.39200 39060 ft 389 kts 83°
2026-04-20 19:17 54.98265 -30.29826 39057 ft 389 kts 83°
2026-04-20 19:17 54.98818 -30.20452 39058 ft 389 kts 83°
2026-04-20 19:18 54.99364 -30.11092 39065 ft 388 kts 84°
2026-04-20 19:18 54.99874 -30.01788 39065 ft 388 kts 86°
2026-04-20 19:19 54.99557 -29.92398 39070 ft 389 kts 95°
2026-04-20 19:19 54.99024 -29.83015 39071 ft 389 kts 94°
2026-04-20 19:20 54.98471 -29.73656 39068 ft 389 kts 95°
2026-04-20 19:20 54.97913 -29.64298 39071 ft 388 kts 94°
2026-04-20 19:21 54.97350 -29.54947 39075 ft 388 kts 95°
2026-04-20 19:21 54.96778 -29.45609 39071 ft 388 kts 95°
2026-04-20 19:22 54.96200 -29.36272 39069 ft 388 kts 95°
2026-04-20 19:22 54.95615 -29.26937 39077 ft 388 kts 95°
2026-04-20 19:23 54.95023 -29.17615 39078 ft 388 kts 95°
2026-04-20 19:23 54.94424 -29.08300 39077 ft 387 kts 95°
2026-04-20 19:24 54.93818 -28.98978 39081 ft 387 kts 95°
2026-04-20 19:24 54.93209 -28.89735 39084 ft 387 kts 95°
2026-04-20 19:25 54.92591 -28.80443 39084 ft 387 kts 95°
2026-04-20 19:25 54.91964 -28.71153 39084 ft 387 kts 95°
2026-04-20 19:26 54.91331 -28.61873 39084 ft 386 kts 95°
2026-04-20 19:26 54.90692 -28.52593 39093 ft 386 kts 96°
2026-04-20 19:27 54.90044 -28.43320 39090 ft 386 kts 96°
2026-04-20 19:27 54.89392 -28.34056 39090 ft 386 kts 96°
2026-04-20 19:28 54.88731 -28.24802 39094 ft 386 kts 96°
2026-04-20 19:28 54.88068 -28.15598 39095 ft 386 kts 96°
2026-04-20 19:29 54.87394 -28.06347 39096 ft 386 kts 96°
2026-04-20 19:29 54.86713 -27.97099 39090 ft 386 kts 96°
2026-04-20 19:30 54.86024 -27.87865 39098 ft 386 kts 96°
2026-04-20 19:30 54.85330 -27.78635 39095 ft 386 kts 97°
2026-04-20 19:31 54.84630 -27.69406 39101 ft 385 kts 97°
2026-04-20 19:31 54.83921 -27.60187 39097 ft 385 kts 97°
2026-04-20 19:32 54.83206 -27.50978 39103 ft 385 kts 97°
2026-04-20 19:32 54.82485 -27.41777 39104 ft 385 kts 97°
2026-04-20 19:33 54.81758 -27.32584 39104 ft 385 kts 97°
2026-04-20 19:33 54.81028 -27.23454 39110 ft 385 kts 97°
2026-04-20 19:34 54.80287 -27.14281 39108 ft 384 kts 97°
2026-04-20 19:34 54.79540 -27.05105 39109 ft 385 kts 97°
2026-04-20 19:35 54.78786 -26.95935 39111 ft 384 kts 98°
2026-04-20 19:35 54.78024 -26.86779 39112 ft 384 kts 98°
2026-04-20 19:36 54.77257 -26.77635 39114 ft 383 kts 98°
2026-04-20 19:36 54.76485 -26.68500 39117 ft 383 kts 98°
2026-04-20 19:37 54.75705 -26.59371 39119 ft 383 kts 98°
2026-04-20 19:37 54.74918 -26.50245 39120 ft 383 kts 98°
2026-04-20 19:38 54.74123 -26.41113 39121 ft 383 kts 98°
2026-04-20 19:38 54.73325 -26.32006 39119 ft 383 kts 98°
2026-04-20 19:39 54.72519 -26.22910 39122 ft 382 kts 98°
2026-04-20 19:39 54.71707 -26.13828 39125 ft 382 kts 98°
2026-04-20 19:40 54.70895 -26.04820 39126 ft 381 kts 98°
2026-04-20 19:40 54.70072 -25.95757 39126 ft 381 kts 98°
2026-04-20 19:41 54.69243 -25.86711 39129 ft 381 kts 99°
2026-04-20 19:41 54.68406 -25.77676 39128 ft 380 kts 99°
2026-04-20 19:42 54.67565 -25.68656 39126 ft 380 kts 99°
2026-04-20 19:42 54.66718 -25.59631 39130 ft 380 kts 99°
2026-04-20 19:43 54.65864 -25.50627 39130 ft 379 kts 99°
2026-04-20 19:43 54.65003 -25.41629 39132 ft 379 kts 99°
2026-04-20 19:44 54.64144 -25.32720 39136 ft 378 kts 99°
2026-04-20 19:44 54.63276 -25.23773 39135 ft 378 kts 99°
2026-04-20 19:45 54.62401 -25.14838 39140 ft 377 kts 99°
2026-04-20 19:45 54.61519 -25.05918 39140 ft 377 kts 99°
2026-04-20 19:46 54.60634 -24.97016 39140 ft 376 kts 99°
2026-04-20 19:46 54.59744 -24.88124 39139 ft 376 kts 99°
2026-04-20 19:47 54.58846 -24.79250 39139 ft 375 kts 99°
2026-04-20 19:47 54.57942 -24.70377 39142 ft 375 kts 99°
2026-04-20 19:48 54.57041 -24.61586 39139 ft 375 kts 100°
2026-04-20 19:48 54.56128 -24.52748 39144 ft 374 kts 100°
2026-04-20 19:49 54.55208 -24.43919 39143 ft 374 kts 100°
2026-04-20 19:49 54.54282 -24.35093 39144 ft 374 kts 100°
2026-04-20 19:50 54.53351 -24.26281 39143 ft 374 kts 100°
2026-04-20 19:50 54.52415 -24.17480 39145 ft 374 kts 100°
2026-04-20 19:51 54.51471 -24.08683 39146 ft 373 kts 100°
2026-04-20 19:51 54.50522 -23.99898 39149 ft 373 kts 100°
2026-04-20 19:52 54.49575 -23.91185 39149 ft 373 kts 100°
2026-04-20 19:52 54.48607 -23.82355 39150 ft 373 kts 100°
2026-04-20 19:53 54.47647 -23.73657 39150 ft 373 kts 100°
2026-04-20 19:53 54.46674 -23.64903 39147 ft 373 kts 100°
2026-04-20 19:54 54.45696 -23.56149 39150 ft 373 kts 100°
2026-04-20 19:54 54.44709 -23.47391 39148 ft 373 kts 101°
2026-04-20 19:55 54.43718 -23.38659 39154 ft 373 kts 101°
2026-04-20 19:55 54.42720 -23.29916 39154 ft 373 kts 101°
2026-04-20 19:56 54.41886 -23.22662 39152 ft 373 kts 101°
2026-04-20 19:56 54.40712 -23.12511 39149 ft 373 kts 101°
2026-04-20 19:57 54.39693 -23.03776 39156 ft 373 kts 101°
2026-04-20 19:57 54.38672 -22.95066 39154 ft 373 kts 101°
2026-04-20 19:58 54.37643 -22.86349 39157 ft 373 kts 101°
2026-04-20 19:58 54.36608 -22.77641 39155 ft 373 kts 101°
2026-04-20 19:59 54.35571 -22.68983 39158 ft 373 kts 101°
2026-04-20 19:59 54.34523 -22.60274 39152 ft 373 kts 101°
2026-04-20 20:00 54.33468 -22.51571 39156 ft 373 kts 101°
2026-04-20 20:00 54.32406 -22.42870 39157 ft 373 kts 101°
2026-04-20 20:01 54.31338 -22.34171 39158 ft 373 kts 101°
2026-04-20 20:01 54.30263 -22.25469 39162 ft 373 kts 101°